| time (UTC) | temp F | wind direction | speed knots | gust knots | rain 1hr in | rain 24hr in | rain mn in | humidity % | barometer mb |
| 20260508125556 | 49 | 226 | 0.0 | 0.0 | 0.00 | 0.17 | 0.01 | 94 | 1017.4 |
| 20260508125057 | 49 | 226 | 0.0 | 0.0 | 0.00 | 0.18 | 0.01 | 94 | 1017.5 |
| 20260508124556 | 49 | 226 | 0.0 | 0.0 | 0.00 | 0.18 | 0.01 | 94 | 1017.4 |
| 20260508124055 | 48 | 226 | 0.0 | 2.6 | 0.00 | 0.19 | 0.01 | 94 | 1017.3 |
| 20260508123555 | 48 | 226 | 0.0 | 2.6 | 0.00 | 0.19 | 0.01 | 94 | 1017.3 |
| 20260508123055 | 48 | 226 | 0.0 | 0.0 | 0.00 | 0.20 | 0.01 | 94 | 1017.3 |
| 20260508122556 | 47 | 226 | 0.0 | 0.0 | 0.00 | 0.20 | 0.01 | 94 | 1017.3 |
| 20260508122054 | 47 | 226 | 0.0 | 0.0 | 0.00 | 0.21 | 0.01 | 94 | 1017.3 |
| 20260508121553 | 47 | 226 | 0.0 | 0.0 | 0.00 | 0.23 | 0.01 | 94 | 1017.2 |
| 20260508121053 | 46 | 226 | 0.0 | 0.0 | 0.00 | 0.24 | 0.01 | 94 | 1017.0 |
| 20260508120554 | 46 | 226 | 0.0 | 0.0 | 0.00 | 0.25 | 0.01 | 94 | 1017.1 |
| 20260508120053 | 46 | 226 | 0.0 | 0.0 | 0.00 | 0.26 | 0.01 | 94 | 1017.0 |
| 20260508115600 | 45 | 226 | 0.0 | 0.0 | 0.00 | 0.27 | 0.01 | 94 | 1016.9 |
| 20260508115555 | 45 | 226 | 0.0 | 0.0 | 0.00 | 0.27 | 0.01 | 94 | 1017.0 |
| 20260508115212 | 45 | 226 | 0.0 | 0.0 | 0.00 | 0.27 | 0.01 | 94 | 1016.8 |
| 20260508114052 | 45 | 226 | 0.0 | 0.0 | 0.00 | 0.27 | 0.01 | 94 | 1016.7 |
| 20260508113554 | 44 | 226 | 0.0 | 0.0 | 0.00 | 0.27 | 0.01 | 94 | 1016.6 |
| 20260508113051 | 44 | 226 | 0.0 | 0.9 | 0.00 | 0.27 | 0.01 | 94 | 1016.5 |
| 20260508112556 | 44 | 226 | 0.0 | 1.7 | 0.00 | 0.28 | 0.01 | 94 | 1016.5 |
| 20260508112551 | 44 | 226 | 0.0 | 1.7 | 0.00 | 0.28 | 0.01 | 94 | 1016.5 |
| 20260508111552 | 44 | 226 | 0.0 | 0.0 | 0.00 | 0.28 | 0.01 | 94 | 1016.5 |
| 20260508111051 | 44 | 226 | 0.0 | 0.0 | 0.00 | 0.28 | 0.01 | 94 | 1016.4 |
| 20260508110553 | 44 | 226 | 0.0 | 0.0 | 0.00 | 0.28 | 0.01 | 94 | 1016.3 |
| 20260508110052 | 44 | 226 | 0.0 | 0.0 | 0.00 | 0.28 | 0.01 | 94 | 1016.2 |
| 20260508105550 | 43 | 226 | 0.0 | 0.0 | 0.00 | 0.28 | 0.01 | 94 | 1016.2 |
| 20260508105055 | 44 | 226 | 0.0 | 0.0 | 0.00 | 0.28 | 0.01 | 94 | 1015.8 |
| 20260508105050 | 44 | 226 | 0.0 | 0.0 | 0.00 | 0.28 | 0.01 | 94 | 1016.1 |
| 20260508104047 | 44 | 226 | 0.0 | 0.0 | 0.00 | 0.28 | 0.01 | 94 | 1015.7 |
| 20260508103553 | 44 | 226 | 0.0 | 0.0 | 0.00 | 0.29 | 0.01 | 94 | 1015.6 |
| 20260508103549 | 44 | 226 | 0.0 | 0.0 | 0.00 | 0.29 | 0.01 | 94 | 1015.6 |
| 20260508102552 | 44 | 226 | 0.0 | 0.0 | 0.00 | 0.29 | 0.01 | 94 | 1015.4 |
| 20260508102548 | 44 | 226 | 0.0 | 0.0 | 0.00 | 0.29 | 0.01 | 94 | 1015.5 |
| 20260508101553 | 44 | 226 | 0.0 | 0.0 | 0.00 | 0.29 | 0.01 | 94 | 1015.4 |
| 20260508101548 | 44 | 226 | 0.0 | 0.0 | 0.00 | 0.29 | 0.01 | 94 | 1015.4 |
| 20260508100547 | 44 | 226 | 0.0 | 0.0 | 0.00 | 0.29 | 0.01 | 94 | 1015.4 |
| 20260508100048 | 44 | 226 | 0.0 | 0.0 | 0.00 | 0.29 | 0.01 | 94 | 1015.3 |
| 20260508095546 | 44 | 226 | 0.0 | 0.0 | 0.00 | 0.29 | 0.01 | 94 | 1015.2 |
| 20260508095046 | 45 | 226 | 0.0 | 0.0 | 0.00 | 0.29 | 0.01 | 94 | 1015.2 |
| 20260508094550 | 45 | 226 | 0.0 | 0.0 | 0.00 | 0.29 | 0.01 | 94 | 1015.0 |
| 20260508094546 | 45 | 226 | 0.0 | 0.0 | 0.00 | 0.29 | 0.01 | 94 | 1015.0 |
| 20260508093546 | 45 | 228 | 0.0 | 0.0 | 0.00 | 0.29 | 0.01 | 94 | 1015.0 |
| 20260508093045 | 45 | 226 | 0.0 | 0.0 | 0.00 | 0.29 | 0.01 | 94 | 1015.0 |
| 20260508092545 | 45 | 226 | 0.0 | 0.0 | 0.00 | 0.29 | 0.01 | 94 | 1014.9 |
| 20260508092046 | 45 | 226 | 0.0 | 0.0 | 0.00 | 0.29 | 0.01 | 94 | 1014.9 |
| 20260508091554 | 45 | 226 | 0.0 | 0.0 | 0.00 | 0.30 | 0.01 | 94 | 1014.7 |
| 20260508091546 | 45 | 226 | 0.0 | 0.0 | 0.00 | 0.29 | 0.01 | 94 | 1014.7 |
| 20260508091046 | 45 | 227 | 0.0 | 0.0 | 0.00 | 0.30 | 0.01 | 94 | 1014.7 |
| 20260508090044 | 45 | 226 | 0.0 | 0.0 | 0.00 | 0.30 | 0.01 | 94 | 1014.6 |
| 20260508085542 | 46 | 226 | 0.0 | 0.0 | 0.00 | 0.30 | 0.01 | 94 | 1014.7 |
| 20260508085048 | 46 | 226 | 0.0 | 0.0 | 0.00 | 0.30 | 0.01 | 94 | 1014.9 |
| 20260508085043 | 46 | 227 | 0.0 | 0.0 | 0.00 | 0.30 | 0.01 | 94 | 1014.7 |
| 20260508084043 | 46 | 226 | 0.0 | 0.0 | 0.00 | 0.30 | 0.01 | 94 | 1014.7 |
| 20260508083545 | 46 | 226 | 0.0 | 0.0 | 0.00 | 0.30 | 0.01 | 94 | 1014.6 |
| 20260508083044 | 46 | 226 | 0.0 | 0.0 | 0.00 | 0.30 | 0.01 | 94 | 1014.7 |
| 20260508082543 | 46 | 227 | 0.0 | 0.0 | 0.00 | 0.30 | 0.01 | 94 | 1014.7 |
| 20260508082043 | 46 | 226 | 0.0 | 0.0 | 0.00 | 0.30 | 0.01 | 93 | 1014.6 |
| 20260508081544 | 46 | 226 | 0.0 | 0.0 | 0.00 | 0.30 | 0.01 | 93 | 1014.6 |
| 20260508081041 | 46 | 226 | 0.0 | 0.0 | 0.00 | 0.30 | 0.01 | 93 | 1014.5 |
| 20260508080542 | 46 | 226 | 0.0 | 0.0 | 0.00 | 0.30 | 0.01 | 93 | 1014.5 |
| 20260508080042 | 46 | 226 | 0.0 | 0.0 | 0.00 | 0.30 | 0.01 | 93 | 1014.4 |
| 20260508075541 | 47 | 226 | 0.0 | 0.0 | 0.00 | 0.30 | 0.01 | 93 | 1014.1 |
| 20260508075041 | 47 | 226 | 0.0 | 0.0 | 0.00 | 0.30 | 0.01 | 93 | 1014.3 |
| 20260508074546 | 47 | 226 | 0.0 | 0.0 | 0.00 | 0.30 | 0.01 | 93 | 1014.2 |
| 20260508074542 | 47 | 226 | 0.0 | 0.0 | 0.00 | 0.30 | 0.01 | 93 | 1014.2 |
| 20260508073542 | 47 | 226 | 0.0 | 0.0 | 0.00 | 0.30 | 0.01 | 93 | 1014.3 |
| 20260508073046 | 47 | 226 | 0.0 | 0.0 | 0.00 | 0.31 | 0.01 | 93 | 1014.2 |
| 20260508073041 | 47 | 226 | 0.0 | 0.0 | 0.00 | 0.30 | 0.01 | 93 | 1014.3 |
| 20260508072040 | 47 | 226 | 0.0 | 0.0 | 0.00 | 0.31 | 0.01 | 93 | 1014.2 |
| 20260508071540 | 47 | 226 | 0.0 | 0.0 | 0.00 | 0.31 | 0.01 | 93 | 1014.1 |
| 20260508071041 | 47 | 226 | 0.0 | 0.0 | 0.00 | 0.31 | 0.01 | 93 | 1014.1 |
| 20260508070540 | 47 | 226 | 0.0 | 0.0 | 0.00 | 0.31 | 0.01 | 93 | 1014.0 |
| 20260508070039 | 47 | 226 | 0.0 | 0.0 | 0.00 | 0.31 | 0.01 | 93 | 1014.0 |
| 20260508065539 | 47 | 226 | 0.0 | 0.0 | 0.00 | 0.31 | 0.01 | 93 | 1014.0 |
| 20260508065040 | 47 | 226 | 0.0 | 0.0 | 0.00 | 0.31 | 0.01 | 93 | 1014.0 |
| 20260508064540 | 47 | 226 | 0.0 | 0.0 | 0.00 | 0.31 | 0.01 | 93 | 1013.9 |
| 20260508064040 | 48 | 226 | 0.0 | 0.0 | 0.00 | 0.31 | 0.01 | 93 | 1013.9 |
| 20260508063548 | 48 | 226 | 0.0 | 0.0 | 0.01 | 0.31 | 0.01 | 93 | 1013.9 |
| 20260508063539 | 48 | 226 | 0.0 | 0.0 | 0.01 | 0.31 | 0.01 | 93 | 1014.0 |
| 20260508062547 | 48 | 226 | 0.0 | 0.0 | 0.01 | 0.31 | 0.01 | 93 | 1014.0 |
| 20260508062537 | 48 | 226 | 0.0 | 0.0 | 0.01 | 0.31 | 0.01 | 93 | 1013.9 |
| 20260508062037 | 48 | 226 | 0.0 | 0.0 | 0.01 | 0.31 | 0.01 | 93 | 1013.9 |
| 20260508061538 | 48 | 226 | 0.0 | 0.0 | 0.01 | 0.31 | 0.01 | 93 | 1013.9 |
| 20260508061038 | 48 | 226 | 0.0 | 0.0 | 0.01 | 0.31 | 0.01 | 93 | 1013.9 |
| 20260508060039 | 48 | 226 | 0.0 | 0.0 | 0.01 | 0.32 | 0.01 | 93 | 1013.9 |
| 20260508055538 | 48 | 226 | 0.0 | 0.0 | 0.01 | 0.32 | 0.01 | 93 | 1013.9 |
| 20260508055037 | 48 | 226 | 0.0 | 0.0 | 0.01 | 0.32 | 0.01 | 93 | 1013.8 |
| 20260508054537 | 48 | 226 | 0.0 | 0.0 | 0.01 | 0.33 | 0.01 | 93 | 1013.8 |
| 20260508054036 | 48 | 226 | 0.0 | 0.0 | 0.01 | 0.33 | 0.01 | 93 | 1013.7 |
| 20260508053535 | 48 | 226 | 0.0 | 0.0 | 0.00 | 0.32 | 0.01 | 93 | 1013.8 |
| 20260508053035 | 49 | 226 | 0.0 | 0.0 | 0.00 | 0.32 | 0.00 | 93 | 1013.7 |
| 20260508052536 | 49 | 226 | 0.0 | 0.0 | 0.00 | 0.32 | 0.00 | 93 | 1013.6 |
| 20260508052041 | 49 | 226 | 0.0 | 0.0 | 0.00 | 0.33 | 0.00 | 93 | 1013.7 |
| 20260508052036 | 49 | 226 | 0.0 | 0.0 | 0.00 | 0.33 | 0.00 | 93 | 1013.7 |
| 20260508051036 | 49 | 226 | 0.0 | 0.0 | 0.00 | 0.33 | 0.00 | 93 | 1013.7 |
| 20260508050535 | 49 | 226 | 0.0 | 0.0 | 0.00 | 0.34 | 0.00 | 93 | 1013.6 |
| 20260508050036 | 49 | 226 | 0.0 | 0.0 | 0.00 | 0.34 | 0.00 | 93 | 1013.5 |
| 20260508045541 | 49 | 226 | 0.0 | 0.0 | 0.00 | 0.34 | 0.00 | 93 | 1013.6 |
| 20260508045536 | 49 | 226 | 0.0 | 0.0 | 0.00 | 0.34 | 0.00 | 93 | 1013.6 |
| 20260508044539 | 50 | 226 | 0.0 | 0.0 | 0.00 | 0.34 | 0.00 | 93 | 1013.6 |
| 20260508044533 | 49 | 226 | 0.0 | 0.0 | 0.00 | 0.34 | 0.00 | 93 | 1013.6 |
| 20260508043533 | 50 | 226 | 0.0 | 0.0 | 0.00 | 0.34 | 0.00 | 93 | 1013.4 |
| 20260508043034 | 50 | 226 | 0.0 | 0.0 | 0.00 | 0.34 | 0.00 | 93 | 1013.4 |
| 20260508042533 | 50 | 226 | 0.0 | 0.9 | 0.00 | 0.34 | 0.00 | 93 | 1013.5 |
| 20260508042033 | 50 | 226 | 0.0 | 0.9 | 0.00 | 0.34 | 0.00 | 93 | 1013.5 |
| 20260508041539 | 50 | 226 | 0.0 | 0.0 | 0.00 | 0.34 | 0.00 | 93 | 1013.4 |
| 20260508041535 | 50 | 226 | 0.0 | 0.9 | 0.00 | 0.34 | 0.00 | 93 | 1013.4 |
| 20260508040536 | 50 | 231 | 0.0 | 0.0 | 0.00 | 0.34 | 0.00 | 93 | 1013.4 |
| 20260508040033 | 50 | 231 | 0.0 | 0.9 | 0.00 | 0.34 | 0.00 | 93 | 1013.4 |
| 20260508035532 | 50 | 231 | 0.0 | 0.9 | 0.00 | 0.34 | 0.34 | 93 | 1013.3 |
| 20260508035038 | 50 | 231 | 0.0 | 0.0 | 0.00 | 0.34 | 0.34 | 93 | 1013.3 |
| 20260508035032 | 50 | 231 | 0.0 | 0.0 | 0.00 | 0.34 | 0.34 | 93 | 1013.3 |
| 20260508034532 | 50 | 231 | 0.0 | 0.0 | 0.00 | 0.34 | 0.34 | 93 | 1013.3 |
| 20260508033531 | 50 | 231 | 0.0 | 0.0 | 0.00 | 0.34 | 0.34 | 93 | 1013.2 |
| 20260508033036 | 51 | 231 | 0.0 | 0.0 | 0.00 | 0.34 | 0.34 | 92 | 1013.3 |
| 20260508033032 | 50 | 231 | 0.0 | 0.0 | 0.00 | 0.34 | 0.34 | 93 | 1013.3 |
| 20260508032648 | 51 | 231 | 0.0 | 0.9 | 0.00 | 0.35 | 0.34 | 92 | 1013.3 |
| 20260508032147 | 51 | 231 | 0.0 | 0.9 | 0.00 | 0.35 | 0.34 | 92 | 1013.3 |
| 20260508031646 | 51 | 231 | 0.0 | 0.0 | 0.00 | 0.35 | 0.34 | 92 | 1013.3 |
| 20260508030535 | 52 | 231 | 0.0 | 0.0 | 0.00 | 0.36 | 0.34 | 92 | 1013.1 |
| 20260508030530 | 51 | 231 | 0.0 | 0.0 | 0.00 | 0.35 | 0.34 | 92 | 1013.2 |
| 20260508025530 | 52 | 231 | 0.0 | 0.0 | 0.00 | 0.36 | 0.34 | 92 | 1012.9 |
| 20260508025030 | 52 | 231 | 0.0 | 0.0 | 0.00 | 0.36 | 0.34 | 92 | 1013.0 |
| 20260508024536 | 53 | 231 | 0.0 | 0.9 | 0.00 | 0.36 | 0.34 | 92 | 1012.7 |
| 20260508024532 | 53 | 231 | 0.0 | 0.0 | 0.00 | 0.36 | 0.34 | 92 | 1012.9 |
| 20260508024030 | 53 | 231 | 0.0 | 0.9 | 0.00 | 0.36 | 0.34 | 92 | 1012.9 |
| 20260508022528 | 53 | 231 | 0.0 | 0.0 | 0.00 | 0.37 | 0.34 | 92 | 1012.8 |
| 20260508022033 | 54 | 231 | 0.0 | 0.9 | 0.00 | 0.39 | 0.34 | 92 | 1012.7 |
| 20260508022029 | 54 | 231 | 0.0 | 0.9 | 0.00 | 0.38 | 0.34 | 92 | 1012.8 |
| 20260508021027 | 54 | 231 | 0.0 | 0.0 | 0.00 | 0.39 | 0.34 | 92 | 1012.6 |
| 20260508020533 | 54 | 231 | 0.0 | 0.0 | 0.00 | 0.40 | 0.34 | 92 | 1012.4 |
| 20260508020529 | 54 | 231 | 0.0 | 0.0 | 0.00 | 0.40 | 0.34 | 92 | 1012.5 |
| 20260508020147 | 54 | 231 | 0.0 | 0.0 | 0.00 | 0.41 | 0.34 | 92 | 1012.3 |
| 20260508015646 | 54 | 231 | 0.0 | 0.0 | 0.00 | 0.41 | 0.34 | 92 | 1012.3 |
| 20260508014528 | 54 | 231 | 0.0 | 0.0 | 0.00 | 0.42 | 0.34 | 92 | 1012.2 |
| 20260508014032 | 55 | 231 | 0.0 | 0.9 | 0.00 | 0.46 | 0.34 | 92 | 1011.9 |
| 20260508014027 | 54 | 231 | 0.0 | 0.0 | 0.00 | 0.44 | 0.34 | 92 | 1012.1 |
| 20260508013526 | 55 | 231 | 0.0 | 0.0 | 0.00 | 0.45 | 0.34 | 92 | 1012.0 |
| 20260508013025 | 55 | 231 | 0.0 | 0.9 | 0.00 | 0.46 | 0.34 | 92 | 1012.0 |
| 20260508012025 | 55 | 92 | 0.0 | 0.9 | 0.00 | 0.46 | 0.34 | 92 | 1011.7 |
| 20260508011525 | 55 | 91 | 0.0 | 0.0 | 0.00 | 0.46 | 0.34 | 92 | 1011.5 |
| 20260508011026 | 55 | 92 | 0.0 | 0.0 | 0.00 | 0.46 | 0.34 | 92 | 1011.5 |
| 20260508010526 | 56 | 91 | 0.0 | 0.0 | 0.00 | 0.46 | 0.34 | 92 | 1011.3 |
| 20260508010025 | 56 | 91 | 0.0 | 0.0 | 0.00 | 0.47 | 0.34 | 92 | 1011.3 |
| 20260508005524 | 56 | 91 | 0.0 | 0.0 | 0.00 | 0.48 | 0.34 | 92 | 1011.0 |
| 20260508005023 | 56 | 92 | 0.0 | 0.0 | 0.00 | 0.49 | 0.34 | 92 | 1011.0 |
| 20260508004524 | 56 | 91 | 0.0 | 0.0 | 0.00 | 0.50 | 0.34 | 92 | 1010.9 |
| 20260508004023 | 56 | 91 | 0.0 | 0.0 | 0.00 | 0.50 | 0.34 | 92 | 1010.6 |
| 20260508003524 | 56 | 92 | 0.0 | 0.0 | 0.00 | 0.50 | 0.34 | 92 | 1010.6 |
| 20260508003024 | 56 | 91 | 0.0 | 0.0 | 0.00 | 0.50 | 0.34 | 92 | 1010.5 |
| 20260508002525 | 57 | 91 | 0.0 | 0.0 | 0.00 | 0.51 | 0.34 | 92 | 1010.6 |
| 20260508002024 | 57 | 92 | 0.0 | 0.0 | 0.00 | 0.51 | 0.34 | 92 | 1010.5 |
| 20260508001523 | 57 | 92 | 0.0 | 0.0 | 0.00 | 0.51 | 0.34 | 92 | 1010.5 |
| 20260508001024 | 57 | 92 | 0.0 | 0.0 | 0.00 | 0.51 | 0.34 | 92 | 1010.7 |
| 20260508000521 | 57 | 92 | 0.0 | 0.0 | 0.00 | 0.52 | 0.34 | 92 | 1010.6 |
| 20260508000022 | 57 | 92 | 0.0 | 0.0 | 0.00 | 0.52 | 0.34 | 92 | 1010.4 |
| 20260507235521 | 58 | 90 | 0.0 | 0.9 | 0.00 | 0.52 | 0.34 | 92 | 1010.3 |
| 20260507235023 | 58 | 91 | 0.0 | 0.9 | 0.00 | 0.52 | 0.34 | 92 | 1010.4 |
| 20260507234521 | 58 | 90 | 0.0 | 0.9 | 0.00 | 0.52 | 0.34 | 92 | 1010.4 |
| 20260507234022 | 58 | 90 | 0.0 | 0.9 | 0.00 | 0.52 | 0.34 | 92 | 1010.5 |
| 20260507233523 | 58 | 90 | 0.0 | 0.9 | 0.00 | 0.52 | 0.34 | 92 | 1010.4 |
| 20260507233019 | 58 | 90 | 0.0 | 0.0 | 0.00 | 0.53 | 0.34 | 92 | 1010.4 |
| 20260507232519 | 58 | 91 | 0.0 | 0.0 | 0.00 | 0.53 | 0.34 | 92 | 1010.4 |
| 20260507232020 | 58 | 91 | 0.0 | 0.0 | 0.00 | 0.53 | 0.34 | 92 | 1010.3 |
| 20260507231517 | 58 | 91 | 0.0 | 0.9 | 0.00 | 0.53 | 0.34 | 92 | 1010.2 |
| 20260507231018 | 58 | 91 | 0.0 | 0.9 | 0.00 | 0.53 | 0.34 | 92 | 1010.1 |
| 20260507230519 | 58 | 92 | 0.0 | 0.9 | 0.00 | 0.53 | 0.34 | 92 | 1010.2 |
| 20260507230018 | 59 | 92 | 0.0 | 0.9 | 0.00 | 0.53 | 0.34 | 91 | 1010.0 |
| 20260507225518 | 59 | 269 | 0.0 | 1.7 | 0.00 | 0.53 | 0.34 | 92 | 1009.9 |
| 20260507225019 | 59 | 269 | 0.0 | 1.7 | 0.00 | 0.53 | 0.34 | 92 | 1009.7 |
| 20260507224517 | 59 | 63 | 0.0 | 0.9 | 0.00 | 0.53 | 0.34 | 91 | 1009.5 |
| 20260507224015 | 59 | 63 | 0.0 | 0.9 | 0.00 | 0.53 | 0.34 | 91 | 1009.3 |
| 20260507223516 | 59 | 63 | 0.0 | 0.9 | 0.00 | 0.53 | 0.34 | 91 | 1009.2 |
| 20260507223023 | 59 | 64 | 0.0 | 1.7 | 0.08 | 0.53 | 0.34 | 91 | 1009.3 |
| 20260507223018 | 58 | 63 | 0.0 | 1.7 | 0.02 | 0.53 | 0.34 | 91 | 1009.3 |
| 20260507222017 | 59 | 60 | 0.0 | 0.9 | 0.09 | 0.53 | 0.34 | 91 | 1009.2 |
| 20260507222012 | 59 | 53 | 0.0 | 0.9 | 0.09 | 0.53 | 0.34 | 91 | 1009.2 |
| 20260507221631 | 59 | 274 | 0.0 | 2.6 | 0.09 | 0.53 | 0.34 | 91 | 1009.2 |
| 20260507220512 | 59 | 274 | 0.0 | 2.6 | 0.09 | 0.53 | 0.34 | 91 | 1009.0 |
| 20260507220016 | 59 | 85 | 0.0 | 1.7 | 0.09 | 0.53 | 0.34 | 91 | 1008.7 |
| 20260507215509 | 59 | 304 | 0.0 | 1.7 | 0.09 | 0.53 | 0.34 | 91 | 1008.6 |
| 20260507215010 | 59 | 92 | 0.0 | 1.7 | 0.09 | 0.53 | 0.34 | 91 | 1008.8 |
| 20260507214510 | 59 | 218 | 0.0 | 4.3 | 0.09 | 0.53 | 0.34 | 91 | 1008.8 |
| 20260507214015 | 59 | 13 | 0.9 | 2.6 | 0.09 | 0.53 | 0.34 | 91 | 1008.7 |
| 20260507214010 | 59 | 284 | 0.0 | 4.3 | 0.09 | 0.53 | 0.34 | 91 | 1008.6 |
| 20260507213009 | 59 | 65 | 0.9 | 2.6 | 0.07 | 0.51 | 0.32 | 91 | 1008.6 |
| 20260507212509 | 59 | 203 | 0.9 | 2.6 | 0.01 | 0.45 | 0.26 | 91 | 1008.8 |
| 20260507212009 | 60 | 68 | 0.9 | 1.7 | 0.00 | 0.44 | 0.25 | 91 | 1008.2 |
| 20260507211509 | 60 | 78 | 0.9 | 2.6 | 0.02 | 0.44 | 0.25 | 91 | 1008.2 |
| 20260507211008 | 60 | 68 | 0.0 | 2.6 | 0.03 | 0.44 | 0.25 | 90 | 1008.4 |
| 20260507210510 | 61 | 0 | 0.0 | 1.7 | 0.03 | 0.44 | 0.25 | 91 | 1008.1 |
| 20260507210008 | 61 | 226 | 0.0 | 1.7 | 0.04 | 0.44 | 0.25 | 91 | 1008.2 |
| 20260507205508 | 61 | 103 | 0.0 | 1.7 | 0.04 | 0.44 | 0.25 | 91 | 1008.1 |
| 20260507205010 | 61 | 68 | 0.0 | 1.7 | 0.04 | 0.44 | 0.25 | 91 | 1008.0 |
| 20260507204509 | 61 | 349 | 0.0 | 1.7 | 0.04 | 0.44 | 0.25 | 91 | 1008.2 |
| 20260507204013 | 60 | 83 | 0.0 | 2.6 | 0.04 | 0.44 | 0.25 | 91 | 1008.0 |
| 20260507204007 | 61 | 227 | 0.0 | 2.6 | 0.04 | 0.44 | 0.25 | 91 | 1008.3 |
| 20260507203627 | 60 | 129 | 0.9 | 2.6 | 0.04 | 0.44 | 0.25 | 90 | 1008.0 |
| 20260507203622 | 60 | 293 | 0.0 | 1.7 | 0.04 | 0.44 | 0.25 | 91 | 1008.3 |
| 20260507202003 | 60 | 283 | 0.9 | 5.2 | 0.04 | 0.44 | 0.25 | 89 | 1008.1 |
| 20260507201508 | 62 | 56 | 1.7 | 5.2 | 0.01 | 0.41 | 0.22 | 87 | 1008.2 |
| 20260507201504 | 61 | 240 | 0.9 | 5.2 | 0.02 | 0.42 | 0.24 | 88 | 1008.2 |
| 20260507201119 | 63 | 300 | 1.7 | 5.2 | 0.01 | 0.41 | 0.22 | 85 | 1008.1 |
| 20260507200008 | 67 | 79 | 1.7 | 7.8 | 0.00 | 0.40 | 0.21 | 79 | 1008.0 |
| 20260507200003 | 65 | 186 | 1.7 | 7.8 | 0.00 | 0.40 | 0.21 | 82 | 1007.9 |
| 20260507195623 | 73 | 5 | 0.9 | 5.2 | 0.00 | 0.40 | 0.21 | 75 | 1007.3 |
| 20260507195000 | 69 | 45 | 0.0 | 7.0 | 0.00 | 0.40 | 0.21 | 79 | 1007.3 |
| 20260507194500 | 71 | 338 | 0.9 | 5.2 | 0.00 | 0.40 | 0.21 | 78 | 1007.3 |
| 20260507193500 | 74 | 139 | 0.9 | 3.5 | 0.00 | 0.40 | 0.21 | 74 | 1007.0 |
| 20260507193003 | 74 | 225 | 0.9 | 3.5 | 0.00 | 0.40 | 0.21 | 73 | 1007.1 |
| 20260507192957 | 74 | 243 | 0.9 | 3.5 | 0.00 | 0.40 | 0.21 | 73 | 1006.9 |
| 20260507192003 | 76 | 240 | 1.7 | 7.8 | 0.00 | 0.40 | 0.21 | 71 | 1007.1 |
| 20260507191957 | 75 | 221 | 1.7 | 7.8 | 0.00 | 0.40 | 0.21 | 72 | 1007.0 |
| 20260507190958 | 76 | 224 | 0.9 | 4.3 | 0.00 | 0.40 | 0.21 | 72 | 1007.3 |
| 20260507190459 | 76 | 242 | 0.9 | 4.3 | 0.00 | 0.40 | 0.21 | 73 | 1007.2 |
| 20260507185958 | 75 | 225 | 0.9 | 3.5 | 0.00 | 0.40 | 0.21 | 76 | 1007.0 |
| 20260507185459 | 75 | 255 | 0.9 | 3.5 | 0.00 | 0.40 | 0.21 | 74 | 1007.0 |
| 20260507185001 | 73 | 240 | 0.0 | 2.6 | 0.00 | 0.40 | 0.21 | 80 | 1007.3 |
| 20260507184955 | 74 | 233 | 0.0 | 3.5 | 0.00 | 0.40 | 0.21 | 79 | 1007.0 |
| 20260507184454 | 74 | 239 | 0.0 | 2.6 | 0.00 | 0.40 | 0.21 | 80 | 1007.1 |
| 20260507183459 | 74 | 231 | 0.9 | 2.6 | 0.00 | 0.40 | 0.21 | 81 | 1007.5 |
| 20260507183453 | 73 | 228 | 0.9 | 2.6 | 0.00 | 0.40 | 0.21 | 80 | 1007.5 |
| 20260507182459 | 74 | 246 | 0.9 | 3.5 | 0.00 | 0.40 | 0.21 | 82 | 1007.4 |
| 20260507182453 | 74 | 215 | 0.9 | 2.6 | 0.00 | 0.40 | 0.21 | 82 | 1007.4 |
| 20260507181453 | 74 | 248 | 0.9 | 3.5 | 0.00 | 0.40 | 0.21 | 82 | 1007.4 |
| 20260507180951 | 75 | 225 | 0.0 | 2.6 | 0.00 | 0.40 | 0.21 | 86 | 1007.5 |
| 20260507180451 | 74 | 180 | 0.0 | 0.9 | 0.00 | 0.40 | 0.21 | 90 | 1007.4 |
| 20260507175952 | 73 | 103 | 0.0 | 1.7 | 0.00 | 0.40 | 0.21 | 91 | 1007.5 |
| 20260507175452 | 72 | 261 | 0.0 | 3.5 | 0.00 | 0.40 | 0.21 | 91 | 1007.5 |
| 20260507174952 | 72 | 215 | 0.0 | 3.5 | 0.00 | 0.40 | 0.21 | 91 | 1007.7 |
| 20260507174451 | 70 | 226 | 0.0 | 3.5 | 0.00 | 0.40 | 0.21 | 91 | 1007.7 |
| 20260507173952 | 69 | 235 | 0.9 | 3.5 | 0.00 | 0.40 | 0.21 | 91 | 1007.9 |
| 20260507173453 | 69 | 248 | 0.9 | 3.5 | 0.00 | 0.40 | 0.21 | 91 | 1007.9 |
| 20260507172949 | 70 | 231 | 0.9 | 3.5 | 0.00 | 0.40 | 0.21 | 91 | 1007.9 |
| 20260507172453 | 70 | 224 | 0.0 | 1.7 | 0.00 | 0.40 | 0.21 | 91 | 1007.9 |
| 20260507172448 | 70 | 241 | 0.0 | 0.9 | 0.00 | 0.40 | 0.21 | 91 | 1008.0 |
| 20260507171447 | 71 | 240 | 0.0 | 2.6 | 0.00 | 0.40 | 0.21 | 91 | 1008.0 |
| 20260507170946 | 70 | 72 | 0.0 | 2.6 | 0.00 | 0.41 | 0.21 | 91 | 1008.3 |
| 20260507170450 | 70 | 219 | 0.0 | 1.7 | 0.00 | 0.42 | 0.21 | 92 | 1008.3 |
| 20260507170445 | 69 | 174 | 0.9 | 2.6 | 0.00 | 0.42 | 0.21 | 92 | 1008.5 |
| 20260507165444 | 67 | 210 | 0.9 | 2.6 | 0.00 | 0.42 | 0.21 | 92 | 1008.6 |
| 20260507164943 | 67 | 253 | 0.9 | 2.6 | 0.00 | 0.49 | 0.21 | 92 | 1008.6 |
| 20260507164442 | 67 | 224 | 0.0 | 1.7 | 0.00 | 0.50 | 0.21 | 92 | 1008.5 |
| 20260507163942 | 67 | 226 | 0.9 | 1.7 | 0.00 | 0.50 | 0.21 | 92 | 1008.5 |
| 20260507163446 | 67 | 235 | 0.9 | 3.5 | 0.00 | 0.50 | 0.21 | 92 | 1008.4 |
| 20260507163441 | 67 | 228 | 0.9 | 3.5 | 0.00 | 0.50 | 0.21 | 92 | 1008.4 |
| 20260507162441 | 67 | 229 | 0.0 | 1.7 | 0.00 | 0.50 | 0.21 | 93 | 1008.4 |
| 20260507161942 | 67 | 228 | 0.9 | 3.5 | 0.00 | 0.50 | 0.21 | 93 | 1008.5 |
| 20260507161440 | 67 | 245 | 0.9 | 3.5 | 0.00 | 0.50 | 0.21 | 93 | 1008.7 |
| 20260507160940 | 67 | 215 | 0.0 | 3.5 | 0.00 | 0.50 | 0.21 | 93 | 1008.5 |
| 20260507160439 | 67 | 233 | 0.9 | 3.5 | 0.00 | 0.50 | 0.21 | 93 | 1008.2 |
| 20260507155940 | 67 | 197 | 0.0 | 2.6 | 0.00 | 0.50 | 0.21 | 93 | 1008.3 |
| 20260507155441 | 67 | 228 | 0.0 | 0.9 | 0.00 | 0.50 | 0.21 | 93 | 1008.3 |
| 20260507154939 | 66 | 228 | 0.0 | 0.9 | 0.00 | 0.50 | 0.21 | 93 | 1008.2 |
| 20260507154442 | 66 | 267 | 0.0 | 0.9 | 0.00 | 0.50 | 0.21 | 94 | 1008.2 |
| 20260507154438 | 66 | 228 | 0.0 | 0.9 | 0.00 | 0.50 | 0.21 | 93 | 1008.1 |
| 20260507153437 | 65 | 245 | 0.0 | 0.9 | 0.01 | 0.50 | 0.21 | 94 | 1008.2 |
| 20260507152942 | 65 | 245 | 0.0 | 1.7 | 0.01 | 0.50 | 0.21 | 94 | 1008.5 |
| 20260507152938 | 65 | 245 | 0.0 | 1.7 | 0.01 | 0.50 | 0.21 | 94 | 1008.3 |
| 20260507151937 | 64 | 245 | 0.0 | 0.9 | 0.01 | 0.50 | 0.21 | 94 | 1008.3 |
| 20260507151441 | 64 | 257 | 0.0 | 0.0 | 0.01 | 0.50 | 0.21 | 94 | 1008.7 |
| 20260507151436 | 64 | 245 | 0.0 | 0.9 | 0.01 | 0.50 | 0.21 | 94 | 1008.9 |
| 20260507151051 | 64 | 257 | 0.0 | 0.9 | 0.01 | 0.50 | 0.21 | 94 | 1008.7 |
| 20260507145933 | 64 | 257 | 0.0 | 0.9 | 0.01 | 0.50 | 0.21 | 94 | 1009.1 |
| 20260507145433 | 64 | 257 | 0.0 | 0.9 | 0.01 | 0.50 | 0.21 | 94 | 1009.3 |
| 20260507144933 | 64 | 248 | 0.0 | 0.9 | 0.01 | 0.50 | 0.21 | 94 | 1008.9 |
| 20260507144434 | 64 | 285 | 0.0 | 0.9 | 0.02 | 0.50 | 0.21 | 94 | 1009.2 |
| 20260507143932 | 64 | 227 | 0.0 | 0.9 | 0.02 | 0.50 | 0.21 | 94 | 1009.3 |
| 20260507143432 | 64 | 226 | 0.0 | 1.7 | 0.01 | 0.49 | 0.20 | 94 | 1009.6 |
| 20260507142932 | 64 | 227 | 0.0 | 1.7 | 0.02 | 0.49 | 0.20 | 94 | 1009.5 |
| 20260507142437 | 64 | 243 | 0.0 | 2.6 | 0.02 | 0.49 | 0.20 | 93 | 1009.1 |
| 20260507142431 | 64 | 239 | 0.0 | 2.6 | 0.02 | 0.49 | 0.20 | 94 | 1009.3 |
| 20260507141432 | 64 | 229 | 0.0 | 0.9 | 0.02 | 0.49 | 0.20 | 94 | 1008.9 |
| 20260507140936 | 64 | 229 | 0.0 | 0.9 | 0.02 | 0.49 | 0.20 | 94 | 1009.0 |
| 20260507140931 | 64 | 229 | 0.0 | 0.9 | 0.02 | 0.49 | 0.20 | 94 | 1008.8 |
| 20260507135932 | 64 | 229 | 0.0 | 0.0 | 0.02 | 0.49 | 0.20 | 94 | 1009.0 |
| 20260507135432 | 64 | 229 | 0.0 | 0.0 | 0.02 | 0.49 | 0.20 | 94 | 1008.7 |
| 20260507134930 | 63 | 229 | 0.0 | 0.0 | 0.03 | 0.49 | 0.20 | 94 | 1009.0 |
| 20260507134429 | 63 | 229 | 0.0 | 0.9 | 0.02 | 0.48 | 0.19 | 94 | 1009.0 |
| 20260507133930 | 63 | 229 | 0.0 | 0.9 | 0.03 | 0.48 | 0.19 | 94 | 1008.9 |
| 20260507133431 | 63 | 229 | 0.0 | 0.9 | 0.03 | 0.48 | 0.19 | 94 | 1008.9 |
| 20260507132931 | 63 | 229 | 0.0 | 0.0 | 0.03 | 0.47 | 0.18 | 94 | 1008.9 |
| 20260507132433 | 63 | 229 | 0.0 | 0.9 | 0.04 | 0.47 | 0.18 | 94 | 1008.6 |
| 20260507132428 | 63 | 229 | 0.0 | 0.0 | 0.03 | 0.47 | 0.18 | 94 | 1008.8 |
| 20260507131427 | 63 | 229 | 0.0 | 0.9 | 0.06 | 0.47 | 0.18 | 94 | 1008.5 |
| 20260507130930 | 63 | 225 | 0.0 | 0.0 | 0.07 | 0.47 | 0.18 | 94 | 1008.2 |
| 20260507130432 | 62 | 225 | 0.0 | 0.0 | 0.09 | 0.47 | 0.18 | 94 | 1008.3 |
| 20260507130427 | 63 | 225 | 0.0 | 0.0 | 0.08 | 0.47 | 0.18 | 94 | 1008.3 |
| 20260507130044 | 62 | 225 | 0.0 | 0.0 | 0.10 | 0.47 | 0.18 | 94 | 1008.6 |